Location: Bacea
(45.9500°N, 22.6667°E)
Time: 03:51:21
(UTC+00:00)

Cosmos 2263 Rocket - Pass Details

Date: 29 May 2022
Orbit: 825 x 847 km, 71.0° (Epoch: 04 July)

Event Time Altitude Azimuth Distance (km) Brightness Sun altitude
Rises 19:05:09 0° 333° (NNW) 3,381 6.9 -8.4°
Reaches altitude 10° 19:07:36 10° 335° (NNW) 2,441 5.9 -8.7°
Maximum altitude 19:13:12 84° 63° (ENE) 836 2.2 -9.4°
Enters shadow 19:18:29 12° 153° (SSE) 2,313 3.9 -10.0°
